Regional Weather Roundup
Issued by NWS

Home | Current Version | Previous Version | Text Only | Print | Product List | Glossary On
Versions: 1 2 3 4 5 6 7 8 9 10 11 12 13 14 15 16 17 18 19 20 21 22 23 24 25 26 27 28 29 30 31 32 33 34 35 36 37 38 39 40 41 42 43 44 45 46 47 48 49 50
000
ASUS45 KABQ 182110
RWRNM
NEW MEXICO REGIONAL WEATHER ROUNDUP
NATIONAL WEATHER SERVICE ALBUQUERQUE NM
200 PM MST WED JAN 18 2017

NOTE: "FAIR" MEANS FEW OR NO CLOUDS BELOW 12,000 FEET AGL WITH NO
       SIGNIFICANT WEATHER OR OBSTRUCTIONS TO VISION.

      THIS PRODUCT IS RELEASED AS TWO VERSIONS.  ONE VERSION NEAR
      THE TOP OF THE HOUR CONTAINING PRELIMINARY DATA FROM ALBUQUERQUE
      AND OTHER STATIONS.  A FINAL VERSION WITH ADDITIONAL DATA IS
      ISSUED ABOUT 10 MINUTES AFTER THE HOUR.

NMZ501-503-504-510>518-182200-
NORTHWEST PLATEAU/NORTHCENTRAL MOUNTAINS

CITY           SKY/WX    TMP DP  RH WIND       PRES   REMARKS
FARMINGTON     CLOUDY    42  29  59 W16       30.02F
LOS ALAMOS     CLOUDY    37  31  79 E3        30.00F
SANTA FE       CLOUDY    41  30  65 N5        29.98F
TAOS           CLOUDY    32  21  64 CALM      30.00F
ANGEL FIRE     PTSUNNY   32  24  72 W12       29.96F WCI  23

$$
NMZ402-403-502-505>509-182200-
WESTCENTRAL MOUNTAINS/SOUTHWEST MOUNTAINS

CITY           SKY/WX    TMP DP  RH WIND       PRES   REMARKS
GALLUP         CLOUDY    40  32  73 SW13      30.06F WCI  32
GRANTS         PTSUNNY   44  27  51 W16G28    30.04F
SILVER CITY    FAIR      50  32  50 W14       30.06F

$$
NMZ407-409-411-412-182200-
SOUTHERN DESERTS

CITY           SKY/WX    TMP DP  RH WIND       PRES   REMARKS
DEMING         FAIR      55  39  54 W14G22    30.05F
LAS CRUCES     PTSUNNY   51  44  76 W3        30.07F
HOLLOMAN AFB   FAIR      49  42  77 SW6       30.08F
ALAMOGORDO     FAIR      50  39  66 S8        30.07F
T OR C         FAIR      50  38  63 S9        30.02F

$$
NMZ519>523-182200-
CENTRAL VALLEYS/CENTRAL HIGHLANDS

CITY           SKY/WX    TMP DP  RH WIND       PRES   REMARKS
ALBUQUERQUE    CLOUDY    45  35  68 SW7       30.02F
DOUBLE EAGLE   LGT RAIN  45  34  65 NW5       30.02F
MORIARTY ARPT  CLOUDY    41  31  66 NW12      30.00F
CLINES CORNERS CLOUDY    38  26  62 W28G35    29.96F WCI  26
BELEN          CLOUDY    47  34  60 W3        30.02F
SOCORRO        PTSUNNY   47  38  72 SE5       30.02F

$$
NMZ524>526-539-540-182200-
SOUTHCENTRAL MOUNTAINS

CITY           SKY/WX    TMP DP  RH WIND       PRES   REMARKS
RUIDOSO        FAIR      43  25  49 NW20      30.02F

$$
NMZ527>531-182200-
NORTHEAST HIGHLANDS/NORTHEAST PLAINS

CITY           SKY/WX    TMP DP  RH WIND       PRES   REMARKS
LAS VEGAS      FAIR      43  24  47 CALM      29.89F
RATON          FAIR      37  30  75 SW7       29.86F WCI  32
CLAYTON        FAIR      53  35  50 SW14G24   29.85F

$$
NMZ532>537-182200-
EASTCENTRAL PLAINS

CITY           SKY/WX    TMP DP  RH WIND       PRES   REMARKS
TUCUMCARI      FAIR      59  31  34 SW22G32   29.85F
CANNON AFB     FAIR      54  45  73 SW21      29.93F
CLOVIS AIRPORT FAIR      55  39  54 SW22      29.93F

$$
NMZ028-029-538-182200-
SOUTHEAST PLAINS

CITY           SKY/WX    TMP DP  RH WIND       PRES   REMARKS
ROSWELL        PTSUNNY   56  42  59 E8        29.96F
ARTESIA        FAIR      61  41  48 SW13G21   29.97F
CARLSBAD       FAIR      61  38  42 W20       29.98F
HOBBS          MOSUNNY   57  39  51 SW8G16    30.00F


$$



USA.gov is the U.S. government's official web portal to all federal, state and local government web resources and services.